Location: Bamazo
(6.7448°N, 10.8189°W)
Time: 01:35:26
(UTC+00:00)

H-2A R/B - Pass Details

Date: 18 September 2020
Orbit: 734 x 836 km, 98.2° (Epoch: 21 October)

Event Time Altitude Azimuth Distance (km) Brightness Sun altitude
Exits shadow 20:49:27 38° 249° (WSW) 1,104 3.1 -32.6°
Maximum altitude 20:49:45 39° 259° (WSW) 1,097 3.1 -32.7°
Drops below altitude 10° 20:54:18 10° 327° (NNW) 2,237 4.8 -33.8°
Sets 20:56:43 0° 335° (NNW) 3,166 5.6 -34.4°
